Location: Bu�n Treun
(12.1333°N, 108.3167°E)
Time: 06:33:18
(UTC+00:00)

BEESAT - Pass Details

Date: 03 October 2021
Orbit: 699 x 709 km, 98.6° (Epoch: 26 October)

Event Time Altitude Azimuth Distance (km) Brightness Sun altitude
Rises 11:17:38 0° 35° (NE) 3,072 ? -11.1°
Reaches altitude 10° 11:20:20 10° 50° (NE) 2,155 ? -11.8°
Maximum altitude 11:23:56 22° 100° (E) 1,515 ? -12.6°
Drops below altitude 10° 11:27:32 10° 150° (SSE) 2,158 ? -13.5°
Sets 11:30:14 0° 166° (SSE) 3,076 ? -14.2°
